Regional Weather Roundup
Issued by NWS

Home | Current Version | Previous Version | Graphics & Text | Print | Product List | Glossary On
Versions: 1 2 3 4 5 6 7 8 9 10 11 12 13 14 15 16 17 18 19 20 21 22 23 24 25 26 27 28 29 30 31 32 33 34 35 36 37 38 39 40 41 42 43 44 45 46 47 48 49 50
031
ASUS43 KBIS 111210
RWRND

NORTH DAKOTA REGIONAL WEATHER ROUNDUP
NATIONAL WEATHER SERVICE BISMARCK ND
600 AM CST SUN DEC 11 2016

NOTE: "FAIR" INDICATES FEW OR NO CLOUDS BELOW 12,000 FEET WITH NO
SIGNIFICANT WEATHER AND/OR OBSTRUCTIONS TO VISIBILITY.


NDZ001>003-009>011-017-111300-
NORTHWEST NORTH DAKOTA

CITY           SKY/WX    TMP DP  RH WIND       PRES   REMARKS
WILLISTON      CLOUDY    -2  -8  76 N6        29.97R WCI -14
6HR MIN TEMP:  -2; 6HR MAX TEMP:   0; 6HR PCP: TRACE;

MINOT          LGT SNOW  -2  -7  79 NE5       29.99S WCI -12
MINOT AFB      LGT SNOW  -4  -8  81 NE6       30.00S WCI -16
$$

NDZ018>021-031>035-040>046-111300-
SOUTHWEST NORTH DAKOTA

CITY           SKY/WX    TMP DP  RH WIND       PRES   REMARKS
BISMARCK       CLOUDY     1  -4  79 E5        29.96F WCI  -9
6HR MIN TEMP:  -1; 6HR MAX TEMP:   1; 6HR PCP:  0.06;

DICKINSON      CLOUDY     2  -1  88 NW6       29.83S FOG     WCI  -9
GARRISON         N/A     -3  -7  82 E5        29.95R WCI -13
6HR MIN TEMP:  -3; 6HR MAX TEMP:  -2; 6HR PCP:  0.17;

HETTINGER ARPT LGT SNOW   6   1  80 W10       29.85S WCI  -9
$$

NDZ004>008-012>016-024-026-027-054-111300-
NORTHEAST NORTH DAKOTA

CITY           SKY/WX    TMP DP  RH WIND       PRES   REMARKS
GRAND FORKS    LGT SNOW   3  -3  76 NE9       30.07F WCI -12
GRND FRKS AFB  LGT SNOW   1  -4  78 NE7       30.07S WCI -11
DEVILS LAKE    LGT SNOW   0  -4  83 E6        30.03R VSB 3/4 WCI -12
$$

NDZ022-023-025-028>030-036>039-047>053-111300-
SOUTHEAST NORTH DAKOTA

CITY           SKY/WX    TMP DP  RH WIND       PRES   REMARKS
FARGO          LGT SNOW  10   4  76 NE9       30.02F VSB 3/4 WCI  -3
6HR MIN TEMP:   7; 6HR MAX TEMP:  10; 6HR PCP:  0.09;

JAMESTOWN      LGT SNOW   1  -3  83 N6        29.97S FOG     WCI -10
$$





USA.gov is the U.S. government's official web portal to all federal, state and local government web resources and services.